Corlu, Turkey

9:24 PM +03 on October 22, 2017 (GMT +0300)
Corlu Air Base

Weather History for LTBU - November, 2012

Change the Weather History Date:

Saturday, November 3, 2012

  Actual Average (LTBA) Record (LTBA)
Temperature  
Mean Temperature 62 °F -  
Max Temperature 69 °F 59 °F 80 °F (2003)
Min Temperature 55 °F 50 °F 37 °F (2006)
Degree Days  
Heating Degree Days 3    
Growing Degree Days 12 (Base 50)    
Moisture  
Dew Point 59 °F    
Average Humidity 91    
Maximum Humidity 100    
Minimum Humidity 68    
Precipitation  
Precipitation 0.00 in - - ()
Sea Level Pressure  
Sea Level Pressure 30.02 in    
Wind  
Wind Speed 5 mph ()    
Max Wind Speed 9 mph    
Max Gust Speed -    
Visibility 4.5 miles    
Events      
Averages and records for this station are not official NWS values.
T = Trace of Precipitation, MM = Missing Value Source: Averaged Metar Reports

Daily Weather History Graph

Daily Weather History Graph

Search for Another Location

Airport or City:

Trip Planner

Search our weather history database for the weather conditions in past years. The results will help you decide how hot, cold, wet, or windy it might be!

Date:

Astronomy

Nov. 03, 2012 Rise Set
Actual Time 6:41 AM EET 5:01 PM EET
Civil Twilight 6:13 AM EET 5:29 PM EET
Nautical Twilight 5:40 AM EET 6:02 PM EET
Astronomical Twilight 5:08 AM EET 6:34 PM EET
Moon 8:23 PM EET (11/3) 10:33 AM EET (11/3)
Length of Visible Light 11h 16m
Length of Day
10h 19m
Waning Gibbous, 82% of the Moon is Illuminated
Nov 3
Waning Gibbous
Nov 7
Last Quarter
Nov 14
New
Nov 20
First Quarter
Nov 28
Full

Hourly Weather History & Observations

Time (EET) Temp. Dew Point Humidity Pressure Visibility Wind Dir Wind Speed Gust Speed Precip Events Conditions
12:20 AM 60.8 °F 59.0 °F 94% 29.89 in 4.3 mi SSW 4.6 mph - N/A   Partly Cloudy
12:50 AM 60.8 °F 60.8 °F 100% 29.89 in 5.0 mi West 4.6 mph - N/A   Scattered Clouds
1:20 AM 60.8 °F 60.8 °F 100% 29.89 in 6.2 mi West 8.1 mph - N/A   Scattered Clouds
1:50 AM 60.8 °F 60.8 °F 100% 29.89 in 5.0 mi WSW 9.2 mph - N/A   Scattered Clouds
2:20 AM 60.8 °F 60.8 °F 100% 29.92 in 5.0 mi West 6.9 mph - N/A   Scattered Clouds
2:50 AM 59.0 °F 59.0 °F 100% 29.92 in 5.0 mi West 4.6 mph - N/A   Mostly Cloudy
3:20 AM 59.0 °F 59.0 °F 100% 29.92 in 5.0 mi West 5.8 mph - N/A   Mostly Cloudy
3:50 AM 59.0 °F 59.0 °F 100% 29.92 in 5.0 mi SW 4.6 mph - N/A   Mostly Cloudy
4:20 AM 59.0 °F 59.0 °F 100% 29.92 in 5.0 mi West 4.6 mph - N/A   Mostly Cloudy
4:50 AM 59.0 °F 59.0 °F 100% 29.95 in 5.0 mi West 6.9 mph - N/A   Mostly Cloudy
5:20 AM 59.0 °F 59.0 °F 100% 29.95 in 6.2 mi WSW 4.6 mph - N/A   Mostly Cloudy
5:50 AM 60.8 °F 59.0 °F 94% 29.95 in 5.0 mi West 6.9 mph - N/A   Mostly Cloudy
6:20 AM 59.0 °F 59.0 °F 100% 29.95 in 2.5 mi WSW 5.8 mph - N/A   Mostly Cloudy
6:50 AM 59.0 °F 59.0 °F 100% 29.98 in 2.5 mi West 4.6 mph - N/A   Mostly Cloudy
7:20 AM 59.0 °F 59.0 °F 100% 29.98 in 2.5 mi NNW 4.6 mph - N/A   Scattered Clouds
7:50 AM 59.0 °F 59.0 °F 100% 30.01 in 1.6 mi WNW 6.9 mph - N/A   Scattered Clouds
8:20 AM 60.8 °F 60.8 °F 100% 30.01 in 1.2 mi NW 5.8 mph - N/A   Mostly Cloudy
8:50 AM 60.8 °F 60.8 °F 100% 30.01 in 1.9 mi NW 8.1 mph - N/A   Mostly Cloudy
9:20 AM 62.6 °F 60.8 °F 94% 30.04 in 2.2 mi NNW 5.8 mph - N/A   Mostly Cloudy
9:50 AM 64.4 °F 60.8 °F 88% 30.04 in 3.1 mi Variable 2.3 mph - N/A   Scattered Clouds
10:20 AM 64.4 °F 59.0 °F 83% 30.04 in 3.1 mi Variable 3.5 mph - N/A   Mostly Cloudy
10:50 AM 64.4 °F 59.0 °F 83% 30.04 in 3.1 mi Variable 3.5 mph - N/A   Mostly Cloudy
11:20 AM 66.2 °F 59.0 °F 78% 30.04 in 3.7 mi Variable 2.3 mph - N/A   Mostly Cloudy
11:50 AM 66.2 °F 60.8 °F 83% 30.04 in 4.3 mi South 4.6 mph - N/A   Scattered Clouds
12:20 PM 68.0 °F 59.0 °F 73% 30.04 in 6.2 mi Variable 3.5 mph - N/A   Scattered Clouds
12:50 PM 68.0 °F 59.0 °F 73% 30.04 in 4.3 mi South 4.6 mph - N/A   Scattered Clouds
1:20 PM 68.0 °F 59.0 °F 73% 30.04 in 5.0 mi Variable 2.3 mph - N/A   Scattered Clouds
1:50 PM 69.8 °F 60.8 °F 73% 30.04 in 6.2 mi Variable 3.5 mph - N/A   Scattered Clouds
2:20 PM 69.8 °F 59.0 °F 68% 30.04 in 6.2 mi Variable 3.5 mph - N/A   Scattered Clouds
2:50 PM 68.0 °F 59.0 °F 73% 30.04 in 6.2 mi East 4.6 mph - N/A   Scattered Clouds
3:20 PM 68.0 °F 59.0 °F 73% 30.04 in 6.2 mi ESE 6.9 mph - N/A   Scattered Clouds
3:50 PM 66.2 °F 60.8 °F 83% 30.06 in 6.2 mi SE 6.9 mph - N/A   Scattered Clouds
4:20 PM 64.4 °F 60.8 °F 88% 30.06 in 6.2 mi SE 5.8 mph - N/A   Scattered Clouds
4:50 PM 62.6 °F 59.0 °F 88% 30.06 in 5.0 mi ESE 4.6 mph - N/A   Scattered Clouds
5:20 PM 60.8 °F 59.0 °F 94% 30.06 in 4.3 mi East 5.8 mph - N/A   Partly Cloudy
5:50 PM 60.8 °F 59.0 °F 94% 30.06 in 5.0 mi East 4.6 mph - N/A   Partly Cloudy
6:20 PM 60.8 °F 59.0 °F 94% 30.09 in 5.0 mi NE 6.9 mph - N/A   Unknown
6:50 PM 59.0 °F 57.2 °F 94% 30.09 in - NE 5.8 mph - N/A   Clear
7:20 PM 59.0 °F 57.2 °F 94% 30.09 in - NE 8.1 mph - N/A   Clear
7:50 PM 59.0 °F 57.2 °F 94% 30.09 in - NE 9.2 mph - N/A   Clear
8:20 PM 59.0 °F 57.2 °F 94% 30.09 in - NE 8.1 mph - N/A   Clear
8:50 PM 59.0 °F 57.2 °F 94% 30.09 in - ENE 9.2 mph - N/A   Clear
9:20 PM 59.0 °F 57.2 °F 94% 30.09 in - East 6.9 mph - N/A   Clear
9:50 PM 57.2 °F 57.2 °F 100% 30.09 in - ENE 8.1 mph - N/A   Clear
10:20 PM 57.2 °F 55.4 °F 94% 30.09 in - ENE 6.9 mph - N/A   Clear
10:50 PM 57.2 °F 55.4 °F 94% 30.09 in - ENE 6.9 mph - N/A   Clear
11:20 PM 55.4 °F 55.4 °F 100% 30.09 in - NE 5.8 mph - N/A   Clear
11:50 PM 55.4 °F 53.6 °F 94% 30.09 in - NE 9.2 mph - N/A   Clear